Regional Weather Roundup
Issued by NWS Wakefield, VA

Home | Current Version | Previous Version | Graphics & Text | Print | Product List | Glossary On
Versions: 1 2 3 4 5 6 7 8 9 10 11 12 13 14 15 16 17 18 19 20 21 22 23 24 25 26 27 28 29 30 31 32 33 34 35 36 37 38 39 40 41 42 43 44 45 46 47 48 49 50
000
ASUS41 KAKQ 012215
RWRAKQ

REGIONAL WEATHER ROUNDUP
NATIONAL WEATHER SERVICE WAKEFIELD VA
600 PM EDT WED JUL 01 2015

Note: "fair" indicates few or no clouds below 12,000 feet with no
significant weather and/or obstructions to visibility. * = Denotes
station may not report precipitation (e.g., rain,snow,etc.),
thunder or fog.

VAZ042-051-052>054-056-012300-
NORTHERN VIRGINIA

CITY           SKY/WX    TMP DP  RH WIND       PRES   REMARKS
WASH NATIONAL  PTSUNNY   85  66  53 SW9       29.83S
DULLES         MOSUNNY   84  65  52 NW8       29.84F
FORT BELVOIR   MOSUNNY   83  68  58 S5        29.83F
QUANTICO       MOSUNNY   86  66  51 SW7       29.84S
FREDERICKSBRG* SUNNY     88  67  49 SW7       29.83F
STAFFORD*      SUNNY     83  66  56 SW5       29.88F
WARRENTON      MOSUNNY   85  70  60 S7        29.85R
CULPEPER*      MOSUNNY   83  67  59 SW6       29.85F
MANASSAS*      SUNNY     84  66  54 SW9       29.84S
LEESBURG*      MOSUNNY   84  70  61 SW5       29.86R
WINCHESTER     SUNNY     82  61  47 NW7       29.87S
FRONT ROYAL*   FAIR      82  61  47 W3        29.85S
LURAY*         FAIR      86  59  39 NW5       29.86S
$$

VAZ048-049-060>072-079>083-012300-
CENTRAL AND SOUTH CENTRAL VIRGINIA

CITY           SKY/WX    TMP DP  RH WIND       PRES   REMARKS
RICHMOND       MOSUNNY   86  66  51 SW13      29.86F
CHESTERFIELD*  FAIR      84  61  45 SW8       29.88F
PETERSBURG*    SUNNY     85  73  67 S7        29.89S
HANOVER        MOSUNNY   85  65  51 SW8       29.87F
TAPPAHANNOCK*  MOSUNNY   85  62  46 SW7       29.87S
QUINTON*       FAIR      85  68  57 SW3       29.86F
CHARLOTTSVILLE MOSUNNY   83  66  56 SW7       29.86S
GORDONSVILLE*  FAIR      82  66  57 SW7       29.85S
ORANGE*        MOSUNNY   86  68  54 S8        29.87S
LOUISA*        SUNNY     84  66  54 SW6       29.85F
BUMPASS*       FAIR      83  67  58 SW5       29.86S
FARMVILLE*     MOSUNNY   86  64  46 SW7       29.87S
CREWE*         FAIR      85  67  55 SW6       29.89S
FORT PICKETT*  FAIR      84  68  58 S12       29.89F
CHASE CITY*    FAIR      86  68  55 CALM      29.90S
CLARKSVILLE*   FAIR      84  64  51 SW5       29.89F
SOUTH HILL*    SUNNY     83  69  60 SW6       29.96F
LAWRENCEVILLE* NOT AVBL
EMPORIA*         N/A     82  68  61 S3        29.90F
$$

VAZ088>098-012300-
SOUTHEAST VIRGINIA

CITY           SKY/WX    TMP DP  RH WIND       PRES   REMARKS
NORFOLK        SUNNY     86  63  45 SW9G18    29.87F
VIRGINIA BEACH SUNNY     88  65  46 SW14      29.87S
NORFOLK NAVAL  MOSUNNY   85  65  51 W12       29.89S
WEST POINT*    SUNNY     87  66  49 S8        29.87F
SALUDA*        FAIR      84  69  59 SW6       29.86F
NEWPORT NEWS   SUNNY     84  68  58 SW12      29.87F
LANGLEY AFB    SUNNY     84  69  59 SW13      29.86F
FORT EUSTIS    SUNNY     85  69  59 VRB7      29.86F
WILLIAMSBURG*  SUNNY     88  72  58 SW6       29.88F
HR EXEC AP*    FAIR      84  70  61 SW6       29.90S
FRANKLIN*      SUNNY     84  68  58 SW6       29.89F
WAKEFIELD      MOSUNNY   85  69  58 SW6       29.88F
$$

VAZ020-022-025-037-045-012300-
WEST CENTRAL AND SOUTHWEST VIRGINIA

CITY           SKY/WX    TMP DP  RH WIND       PRES   REMARKS
STAUNTON*      SUNNY     85  57  38 W5        29.91S
WAYNESBORO*    FAIR      81  60  48 W7        29.91S
HOT SPRINGS VA PTSUNNY   72  60  64 W8        30.03S
LYNCHBURG      SUNNY     82  65  56 S9        29.91S
DANVILLE       MOSUNNY   85  67  54 CALM      29.90F
SOUTH BOSTON*  FAIR      84  68  57 MISG      29.90F
MARTINSVILLE   PTSUNNY   82  68  62 CALM      29.93S
ROANOKE        MOSUNNY   83  62  49 W5        29.93S
BLACKSBURG     MOSUNNY   77  65  66 SW5       30.00S
DUBLIN*        PTSUNNY   76  67  73 SW6       29.99S
MARION*        CLOUDY    73  66  78 W7        30.04S
HILLSVILLE*    CLOUDY    75  63  65 W6        30.01S
RICHLANDS*     FAIR      71  66  84 W9        30.03R
WISE*          LGT RAIN  70  68  94 SW8       30.05R
ABINGDON*      LGT RAIN  74  69  85 W10G17    30.02R
$$

MDZ021>025-VAZ099-100-012300-
SOUTHERN MARYLAND AND THE DELMARVA PENINSULA

CITY           SKY/WX    TMP DP  RH WIND       PRES   REMARKS
PATUXENT RIVER MOSUNNY   84  66  54 SW10      29.84F
BAY BRIDGE APT   N/A     82  63  51 SW5       29.83S
LEONARDTOWN    MOSUNNY   82  64  54 S6        29.86S
DOVER          MOSUNNY   84  68  58 SW12      29.81F
GEORGETOWN     SUNNY     84  64  50 SW8       29.84F
EASTON         SUNNY    N/A N/A N/A SW10      29.87F
CAMBRIDGE      MOSUNNY   82  66  57 S5        29.84S
SALISBURY      SUNNY     83  68  60 SW13      29.85S
OCEAN CITY     SUNNY     84  60  44 W7        29.84F
WALLOPS ISLAND SUNNY     84  69  60 W8        29.86S
ACCOMACK*      SUNNY     82  72  69 W7        29.86F
$$

NCZ012>017-030>032-012300-
NORTH CENTRAL AND EASTERN NORTH CAROLINA

CITY           SKY/WX    TMP DP  RH WIND       PRES   REMARKS
ROANOKE RAPIDS FAIR      82  70  65 SW9       29.90S
RALEIGH        PTSUNNY   85  68  56 W8        29.92F
ELIZABETH CITY SUNNY     84  69  60 SW8       29.89F
AHOSKIE*       SUNNY     82  72  70 CALM      29.90S
EDENTON*         N/A     85  69  57 SW5       29.90F
CURRITUCK*     SUNNY    N/A N/A N/A S3        29.90S
KILL DEVIL HLS SUNNY     89  69  51 CALM      29.90R
MANTEO         MOSUNNY   85  70  59 SW10      29.91S
CAPE HATTERAS  SUNNY     81  74  79 SW12G20   29.93F
TARBORO*         N/A     87  66  49 SW5       29.91S
GOLDSBORO      SUNNY     84  71  65 SW7       29.90S
WASHINGTON     SUNNY     85  69  58 SW6       29.91F
GREENVILLE     MOSUNNY   86  70  58 SW9       29.93S
NEW BERN       SUNNY     85  72  65 SW7       29.93S
WILMINGTON     MOSUNNY   84  74  71 SW9       29.94S
$$

VAZ048-012300-
ELSEWHERE

CITY           SKY/WX    TMP DP  RH WIND       PRES   REMARKS
HARRISBURG PA  MOSUNNY   80  58  46 W10G17    29.82S
BALTIMORE      PTSUNNY   82  65  56 W8        29.82S
ANNAPOLIS      CLOUDY    83  63  50 W3        29.82F
ANDREWS AFB    PTSUNNY   83  70  63 SW14      29.83S
PHILADELPHIA   PTSUNNY   85  60  42 W20       29.81S
HENDERSON NC   SUNNY     84  63  49 SW6       29.91F
GREENSBORO     CLOUDY    85  61  44 SW8       29.92S HAZE
ROCKY MOUNT    MOSUNNY   87  67  51 SW10      29.90F
$$

VAZ100-012300-
MARINE

STATION/POSITION TIME  TEMP    WIND        PRES    WAVE   SWELL
                       AIR SEA DIR/SP/G            HT/PER HT/PER
                 (UTC) (F)     (DEG/KT/KT) (MB)    (FT/S) (FT/S)
BRANDYWINE LGT   2100   81 75  260/ 13/ 14 1010.4F
CAPE MAY NJ      2100   80 80  270/  7/  9 1010.1F
LEWES DE         2100   83 72  290/ 10/ 12 1010.2F
15NM E FENWICK I 2150   76 74              1010.2F   4/ 8
OCEAN-CITY-INLET 2100   84 80  280/  8/ 12 1010.4F
WACHAPREAGUE VA  2100   84 83  270/  6/ 12 1011.5F
THOMAS POINT MD  2200   81 78  200/  8/  9 1010.4
GOOSES REEF MD   2200   83 79  240/  8/ 10 1011.2F
COVE POINT MD    2100   83     250/  7/ 11 1011.3F
SOLOMONS ISLAND  2100      80                N/A
BISHOPS HEAD MD  2100   82     200/  9/ 11 1010.8F
PINEY POINT MD   2100          280/  9/ 10   N/A
CAMBRIDGE MD     2100   84 80  230/  7/ 11 1010.5F
LEWISETTA VA     2100   84 81  250/ 10/ 12 1010.7S
RAPPAHANNOCK LGT 2100          200/ 11/ 11 1011.9F
STINGRAY PT      2200   84 81  240/ 12/ 14 1011.2F   1/ 2
YORK RVR RNG VA  2100   84     250/ 11/ 13 1011.1S
YORKTOWN VA      2100   84 81  240/  7/ 12 1011.4F
JAMESTOWN VA     2200   84 83  240/  8/ 12   N/A
DOMINION TERM VA 2100   85     250/  9/ 11 1011.8F
KIPTOPEKE VA     2100      85  250/ 10/ 11   N/A
CHES BAY BRIDGE  2100   83 79  250/ 12/ 14 1011.3F
CAPE HENRY VA    2100   86     230/  8/ 12 1010.1F
CHESAPEAKE LGHT  2100   79     160/  3/  3 1012.5F
WILLOUBY STN VA  2100   83     270/ 12/ 13 1012.6F
CAPE HENRY BUOY  2128      81                N/A     3/ 8
1ST LANDING BUOY 2200      78              1011.3F   2/ 4
CAPE CHARLES BUO 2126      78                N/A     3/ 8   2/ 8
OFFSHORE WE BUOY 2111      79                N/A     4/ 8   3/ 8
64NM E OF VA BCH 2150   78 77  200/ 10/ 12 1011.9F   4/ 8   3/ 8
DUCK PIER NC     2100   84 66  240/  6/ 10 1011.7F
44100 DUCK FRF   2124      78                N/A     3/ 7
44056 DUCK FRF   2111      74                N/A     2/ 8
OREGON INLET NC  2100   83 84  200/ 15/ 16 1012.9F
HATTERAS NC      2100   80 82  210/ 13/ 17 1013.3F
DIAMOND SHLS NC  2150   81 83  220/ 17/ 21 1013.3F   5/ 6   3/ 8
CAPE LOOKOUT NC  2200   80     220/ 14/ 17 1013.7R
$$



USA.gov is the U.S. government's official web portal to all federal, state and local government web resources and services.